Weather History for Oaxaca, Mexico

Change the Weather History Date:

Sunday, June 30, 2013

  Actual Average Record
Temperature  
Mean Temperature 72 °F -  
Max Temperature 83 °F 79 °F 86 °F (1998)
Min Temperature 62 °F 59 °F 57 °F (2000)
Cooling Degree Days 8    
Growing Degree Days 22 (Base 50)    
Moisture  
Dew Point 58 °F    
Average Humidity 66    
Maximum Humidity 88    
Minimum Humidity 40    
Precipitation  
Precipitation 0.00 in - - ()
Sea Level Pressure  
Sea Level Pressure 29.99 in    
Wind  
Wind Speed 3 mph ()    
Max Wind Speed 18 mph    
Max Gust Speed -    
Visibility 8.4 miles    
Events Rain    
Averages and records for this station are not official NWS values.
T = Trace of Precipitation, MM = Missing Value Source: Averaged Metar Reports

Daily Weather History Graph

Daily Weather History Graph

Search for Another Location

Airport:

Trip Planner

Search our weather history database for the weather conditions in past years. The results will help you decide how hot, cold, wet, or windy it might be!

Date:

Astronomy

Jun. 30, 2013 Rise Set
Actual Time 6:56 AM CDT 8:04 PM CDT
Civil Twilight 6:32 AM CDT 8:28 PM CDT
Nautical Twilight 6:04 AM CDT 8:56 PM CDT
Astronomical Twilight 5:35 AM CDT 9:25 PM CDT
Moon 1:14 AM CDT (6/30) 1:56 PM CDT (6/30)
Length of Visible Light 13h 55m
Length of Day
13h 07m
Last Quarter, 45% of the Moon is Illuminated
Jun 30
Last Quarter
Jul 8
New
Jul 15
First Quarter
Jul 22
Full
Jul 29
Last Quarter

Hourly Weather History & Observations

Time (CDT) Temp. Dew Point Humidity Pressure Visibility Wind Dir Wind Speed Gust Speed Precip Events Conditions
12:45 AM 65 °F 59 °F 74% 29.92 in 6 mi NNE 2.2 mph - -   Partly Cloudy
3:45 AM 64 °F 59 °F 79% 29.91 in 6 mi SE 2.2 mph - -   Partly Cloudy
6:11 AM 62.6 °F 59.0 °F 88% 30.13 in 7.0 mi WSW 2.3 mph - N/A   Mostly Cloudy
6:44 AM 62.6 °F 59.0 °F 88% 29.84 in 8.0 mi Calm Calm - N/A   Mostly Cloudy
6:45 AM 63 °F 58 °F 77% 29.90 in 7 mi SSW 2.2 mph - - Rain Light Drizzle
7:44 AM 64.4 °F 59.0 °F 83% 30.15 in 8.0 mi Calm Calm - N/A   Mostly Cloudy
8:43 AM 68.0 °F 59.0 °F 73% 30.16 in 8.0 mi Calm Calm - N/A   Scattered Clouds
9:41 AM 69.8 °F 57.2 °F 64% 29.83 in 8.0 mi NNE 2.3 mph - N/A   Scattered Clouds
9:50 AM 75 °F 60 °F 50% 29.92 in 9 mi WSW 2.2 mph - -   Partly Cloudy
10:46 AM 71.6 °F 59.0 °F 64% 30.17 in 8.0 mi South 3.5 mph - N/A   Mostly Cloudy
11:53 AM 73.4 °F 59.0 °F 61% 30.17 in 8.0 mi South 5.8 mph - N/A   Mostly Cloudy
12:42 PM 73.4 °F 57.2 °F 57% 29.83 in 8.0 mi SE 5.8 mph - N/A   Mostly Cloudy
12:50 PM 80 °F 60 °F 40% 29.88 in 9 mi SW 2.2 mph - -   Partly Cloudy
1:51 PM 77.0 °F 55.4 °F 47% 30.14 in 12.0 mi SSE 13.8 mph - N/A   Mostly Cloudy
2:50 PM 75.2 °F 57.2 °F 53% 30.13 in 12.0 mi SSW 12.7 mph - N/A   Mostly Cloudy
3:45 PM 73.4 °F 57.2 °F 57% 29.82 in 12.0 mi NNW 18.4 mph - N/A   Mostly Cloudy
3:55 PM 77 °F 58 °F 43% 29.83 in 5 mi NE 4.5 mph - -   Partly Cloudy
4:41 PM 68.0 °F 57.2 °F 68% 30.14 in 10.0 mi NNW 8.1 mph - N/A Rain Light Rain
5:48 PM 68.0 °F 55.4 °F 64% 30.12 in 10.0 mi North 4.6 mph - N/A   Mostly Cloudy
6:44 PM 68.0 °F 57.2 °F 68% 29.82 in 10.0 mi WNW 5.8 mph - N/A   Mostly Cloudy
6:50 PM 71 °F 58 °F 53% 29.80 in 5 mi NNW 2.2 mph - - Rain Light Drizzle
7:47 PM 68.0 °F 57.2 °F 68% 30.16 in 10.0 mi Calm Calm - N/A   Mostly Cloudy
8:48 PM 68.0 °F 59.0 °F 73% 30.19 in 9.0 mi NW 2.3 mph - N/A   Mostly Cloudy
9:44 PM 66.2 °F 59.0 °F 78% 29.84 in 8.0 mi ESE 3.5 mph - N/A   Mostly Cloudy
9:45 PM 67 °F 59 °F 68% 29.87 in 6 mi ESE 2.2 mph - -   Partly Cloudy